SPQ988 VVTS-VVDN

Flight info

Callsign SPQ988
Flight time 0h 56m
Altitude 31000
Route KADUM2D PATMA Q2 LATOM LATOM2K
Aircraft A321/M-SDE3FGHIRWY/LB1

Departure

Time 2026-04-15 14:54
Airport Tan Son Nhat International Airport (VVTS)

Arrival

Time 2026-04-15 15:50
Airport Da Nang International Airport (VVDN)
Time Latitude Longitude Altitude Speed Heading
2026-04-15 14:36 10.81336 106.65525 39 ft 0 kts 159°
2026-04-15 14:40 10.81338 106.65524 39 ft 1 kts 159°
2026-04-15 14:41 10.81355 106.65517 37 ft 3 kts 159°
2026-04-15 14:41 10.81373 106.65511 36 ft 3 kts 153°
2026-04-15 14:41 10.81387 106.65500 35 ft 3 kts 113°
2026-04-15 14:41 10.81391 106.65482 39 ft 3 kts 81°
2026-04-15 14:42 10.81389 106.65471 37 ft 0 kts 69°
2026-04-15 14:44 10.81402 106.65506 38 ft 11 kts 69°
2026-04-15 14:44 10.81442 106.65614 39 ft 21 kts 68°
2026-04-15 14:45 10.81496 106.65755 39 ft 21 kts 66°
2026-04-15 14:45 10.81591 106.65796 39 ft 15 kts
2026-04-15 14:45 10.81689 106.65799 38 ft 13 kts 346°
2026-04-15 14:45 10.81765 106.65818 36 ft 11 kts 57°
2026-04-15 14:46 10.81792 106.65887 36 ft 10 kts 69°
2026-04-15 14:46 10.81823 106.65970 39 ft 15 kts 69°
2026-04-15 14:46 10.81867 106.66087 37 ft 20 kts 69°
2026-04-15 14:46 10.81924 106.66236 39 ft 23 kts 69°
2026-04-15 14:47 10.81980 106.66384 39 ft 22 kts 69°
2026-04-15 14:47 10.82034 106.66528 39 ft 21 kts 69°
2026-04-15 14:47 10.82086 106.66665 39 ft 20 kts 69°
2026-04-15 14:47 10.82136 106.66796 38 ft 19 kts 69°
2026-04-15 14:48 10.82180 106.66914 38 ft 12 kts 68°
2026-04-15 14:48 10.82192 106.66946 39 ft 0 kts 69°
2026-04-15 14:49 10.82195 106.66955 39 ft 4 kts 69°
2026-04-15 14:49 10.82210 106.66994 39 ft 7 kts 66°
2026-04-15 14:49 10.82241 106.67014 39 ft 5 kts
2026-04-15 14:49 10.82265 106.67006 39 ft 3 kts 337°
2026-04-15 14:50 10.82276 106.67001 39 ft 0 kts 337°
2026-04-15 14:50 10.82289 106.66996 39 ft 6 kts 336°
2026-04-15 14:51 10.82340 106.66952 38 ft 12 kts 314°
2026-04-15 14:51 10.82350 106.66896 38 ft 2 kts 245°
2026-04-15 14:51 10.82349 106.66895 38 ft 0 kts 248°
2026-04-15 14:53 10.82337 106.66863 38 ft 23 kts 249°
2026-04-15 14:53 10.82190 106.66473 37 ft 92 kts 249°
2026-04-15 14:53 10.81894 106.65689 39 ft 143 kts 249°
2026-04-15 14:53 10.81489 106.64628 214 ft 168 kts 246°
2026-04-15 14:54 10.81077 106.63523 790 ft 167 kts 246°
2026-04-15 14:54 10.80660 106.62410 1208 ft 174 kts 245°
2026-04-15 14:54 10.80201 106.61190 1372 ft 195 kts 245°
2026-04-15 14:54 10.79690 106.59840 1505 ft 214 kts 246°
2026-04-15 14:55 10.79132 106.58358 1626 ft 236 kts 246°
2026-04-15 14:55 10.78517 106.56727 1926 ft 254 kts 247°
2026-04-15 14:55 10.77878 106.55024 2563 ft 260 kts 247°
2026-04-15 14:55 10.77262 106.53280 3257 ft 263 kts 255°
2026-04-15 14:56 10.77185 106.51416 3933 ft 269 kts 279°
2026-04-15 14:56 10.77842 106.49660 4648 ft 272 kts 302°
2026-04-15 14:56 10.79148 106.48263 5310 ft 277 kts 326°
2026-04-15 14:56 10.80925 106.47499 5952 ft 281 kts 350°
2026-04-15 14:57 10.82878 106.47496 6603 ft 283 kts
2026-04-15 14:57 10.84843 106.47750 7236 ft 285 kts
2026-04-15 14:57 10.86823 106.48007 7855 ft 288 kts
2026-04-15 14:57 10.88823 106.48267 8484 ft 291 kts
2026-04-15 14:58 10.90781 106.48794 9083 ft 293 kts 25°
2026-04-15 14:58 10.92524 106.49847 9693 ft 293 kts 41°
2026-04-15 14:58 10.93959 106.51358 10027 ft 305 kts 53°
2026-04-15 14:58 10.95305 106.53111 10142 ft 324 kts 53°
2026-04-15 14:59 10.96721 106.54976 10255 ft 342 kts 53°
2026-04-15 14:59 10.98210 106.56945 10375 ft 359 kts 53°
2026-04-15 14:59 10.99764 106.58993 10675 ft 369 kts 53°
2026-04-15 14:59 11.01347 106.61068 11152 ft 373 kts 52°
2026-04-15 15:00 11.02949 106.63157 11679 ft 375 kts 52°
2026-04-15 15:00 11.04562 106.65258 12215 ft 378 kts 52°
2026-04-15 15:00 11.06188 106.67372 12732 ft 380 kts 52°
2026-04-15 15:00 11.07825 106.69502 13239 ft 383 kts 52°
2026-04-15 15:01 11.09454 106.71619 13741 ft 386 kts 52°
2026-04-15 15:01 11.11116 106.73778 14183 ft 389 kts 52°
2026-04-15 15:01 11.12788 106.75957 14606 ft 392 kts 52°
2026-04-15 15:01 11.14469 106.78152 15028 ft 394 kts 52°
2026-04-15 15:02 11.16160 106.80362 15438 ft 397 kts 52°
2026-04-15 15:02 11.17865 106.82590 15834 ft 400 kts 53°
2026-04-15 15:02 11.19585 106.84837 16212 ft 403 kts 53°
2026-04-15 15:02 11.21317 106.87101 16601 ft 406 kts 53°
2026-04-15 15:03 11.23062 106.89383 16967 ft 409 kts 53°
2026-04-15 15:03 11.24816 106.91679 17342 ft 412 kts 53°
2026-04-15 15:03 11.26584 106.93990 17713 ft 415 kts 53°
2026-04-15 15:03 11.28367 106.96319 18059 ft 418 kts 53°
2026-04-15 15:04 11.30159 106.98665 18381 ft 421 kts 53°
2026-04-15 15:04 11.31961 107.01022 18700 ft 423 kts 53°
2026-04-15 15:04 11.33774 107.03392 19007 ft 425 kts 53°
2026-04-15 15:04 11.35693 107.05695 19314 ft 428 kts 46°
2026-04-15 15:05 11.37967 107.07666 19613 ft 431 kts 38°
2026-04-15 15:05 11.40381 107.09502 19915 ft 433 kts 38°
2026-04-15 15:05 11.42799 107.11343 20227 ft 435 kts 38°
2026-04-15 15:05 11.45233 107.13199 20541 ft 438 kts 38°
2026-04-15 15:06 11.50133 107.16938 21160 ft 442 kts 38°
2026-04-15 15:06 11.52598 107.18821 21470 ft 444 kts 38°
2026-04-15 15:06 11.55075 107.20717 21770 ft 447 kts 38°
2026-04-15 15:07 11.57566 107.22624 22076 ft 449 kts 38°
2026-04-15 15:07 11.60068 107.24537 22382 ft 451 kts 38°
2026-04-15 15:07 11.62584 107.26460 22676 ft 453 kts 38°
2026-04-15 15:07 11.65115 107.28394 22967 ft 455 kts 38°
2026-04-15 15:08 11.67656 107.30340 23251 ft 458 kts 38°
2026-04-15 15:08 11.70204 107.32291 23528 ft 460 kts 38°
2026-04-15 15:08 11.72769 107.34255 23765 ft 462 kts 38°
2026-04-15 15:08 11.75341 107.36225 24014 ft 463 kts 37°
2026-04-15 15:09 11.77925 107.38203 24252 ft 465 kts 37°
2026-04-15 15:09 11.80485 107.40161 24507 ft 466 kts 37°
2026-04-15 15:09 11.83084 107.42152 24760 ft 468 kts 37°
2026-04-15 15:09 11.85692 107.44155 25003 ft 470 kts 37°
2026-04-15 15:10 11.88309 107.46164 25201 ft 471 kts 37°
2026-04-15 15:10 11.90934 107.48179 25440 ft 473 kts 37°
2026-04-15 15:10 11.93568 107.50202 25664 ft 475 kts 37°
2026-04-15 15:10 11.96214 107.52230 25887 ft 476 kts 37°
2026-04-15 15:11 11.98868 107.54264 26101 ft 478 kts 37°
2026-04-15 15:11 12.01526 107.56305 26319 ft 479 kts 37°
2026-04-15 15:11 12.04199 107.58358 26538 ft 481 kts 37°
2026-04-15 15:11 12.06874 107.60414 26761 ft 482 kts 37°
2026-04-15 15:12 12.09560 107.62477 26978 ft 484 kts 37°
2026-04-15 15:12 12.11346 107.63848 27110 ft 485 kts 37°
2026-04-15 15:12 12.14971 107.66626 27404 ft 487 kts 37°
2026-04-15 15:12 12.17682 107.68706 27594 ft 488 kts 37°
2026-04-15 15:13 12.20398 107.70794 27850 ft 488 kts 37°
2026-04-15 15:13 12.22192 107.72175 28048 ft 488 kts 37°
2026-04-15 15:13 12.24902 107.74265 28335 ft 487 kts 37°
2026-04-15 15:13 12.28481 107.77022 28713 ft 486 kts 36°
2026-04-15 15:14 12.30382 107.78315 28878 ft 485 kts 30°
2026-04-15 15:14 12.34453 107.80165 29213 ft 484 kts 17°
2026-04-15 15:14 12.36657 107.80742 29397 ft 483 kts 10°
2026-04-15 15:14 12.39991 107.81124 29648 ft 482 kts
2026-04-15 15:15 12.43302 107.81185 29904 ft 482 kts
2026-04-15 15:15 12.46657 107.81246 30128 ft 482 kts
2026-04-15 15:15 12.50007 107.81310 30343 ft 481 kts
2026-04-15 15:15 12.53357 107.81380 30570 ft 481 kts
2026-04-15 15:16 12.56704 107.81450 30800 ft 481 kts
2026-04-15 15:16 12.60055 107.81519 30903 ft 479 kts
2026-04-15 15:16 12.66656 107.81653 30921 ft 472 kts
2026-04-15 15:17 12.73227 107.81782 30919 ft 472 kts
2026-04-15 15:17 12.79799 107.81907 30918 ft 472 kts
2026-04-15 15:18 12.86332 107.82036 30913 ft 472 kts
2026-04-15 15:18 12.92909 107.82169 30918 ft 473 kts
2026-04-15 15:19 12.99486 107.82298 30913 ft 473 kts
2026-04-15 15:19 13.06074 107.82427 30909 ft 473 kts
2026-04-15 15:20 13.12659 107.82558 30906 ft 473 kts
2026-04-15 15:20 13.19247 107.82691 30905 ft 474 kts
2026-04-15 15:21 13.25843 107.82820 30907 ft 474 kts
2026-04-15 15:21 13.32433 107.82948 30903 ft 474 kts
2026-04-15 15:22 13.39023 107.83083 30903 ft 473 kts
2026-04-15 15:22 13.45611 107.83226 30904 ft 473 kts
2026-04-15 15:23 13.52200 107.83361 30905 ft 474 kts
2026-04-15 15:23 13.58797 107.83494 30909 ft 474 kts
2026-04-15 15:24 13.65354 107.83634 30912 ft 474 kts
2026-04-15 15:24 13.71951 107.83776 30917 ft 474 kts
2026-04-15 15:25 13.78545 107.83915 30920 ft 474 kts
2026-04-15 15:25 13.85146 107.84048 30924 ft 474 kts
2026-04-15 15:26 13.91743 107.84191 30925 ft 474 kts
2026-04-15 15:26 13.98339 107.84326 30925 ft 474 kts
2026-04-15 15:27 14.04939 107.84416 30927 ft 474 kts 359°
2026-04-15 15:27 14.11537 107.84397 30927 ft 474 kts 358°
2026-04-15 15:28 14.18088 107.84362 30925 ft 474 kts 358°
2026-04-15 15:28 14.24684 107.84350 30926 ft 474 kts 359°
2026-04-15 15:29 14.31288 107.84357 30925 ft 474 kts 359°
2026-04-15 15:29 14.37894 107.84361 30824 ft 475 kts 359°
2026-04-15 15:30 14.41199 107.84362 30404 ft 473 kts 359°
2026-04-15 15:30 14.44493 107.84363 29690 ft 474 kts 359°
2026-04-15 15:30 14.47791 107.84364 29027 ft 471 kts 359°
2026-04-15 15:30 14.51064 107.84364 28342 ft 469 kts 359°
2026-04-15 15:31 14.54328 107.84365 27669 ft 468 kts 359°
2026-04-15 15:31 14.57579 107.84362 26970 ft 467 kts 359°
2026-04-15 15:31 14.60826 107.84357 26257 ft 467 kts 359°
2026-04-15 15:31 14.64079 107.84354 25529 ft 467 kts 360°
2026-04-15 15:32 14.67334 107.84354 24809 ft 467 kts 360°
2026-04-15 15:32 14.70550 107.84355 24099 ft 467 kts
2026-04-15 15:32 14.73801 107.84356 23366 ft 467 kts
2026-04-15 15:32 14.77046 107.84355 22635 ft 464 kts
2026-04-15 15:33 14.80268 107.84354 21982 ft 460 kts
2026-04-15 15:33 14.83454 107.84353 21344 ft 456 kts
2026-04-15 15:33 14.86604 107.84465 20715 ft 451 kts
2026-04-15 15:33 14.89668 107.85069 20109 ft 446 kts 16°
2026-04-15 15:34 14.92589 107.86102 19532 ft 442 kts 20°
2026-04-15 15:34 14.95469 107.87189 18960 ft 438 kts 20°
2026-04-15 15:34 14.98311 107.88257 18421 ft 433 kts 20°
2026-04-15 15:34 15.01126 107.89312 17837 ft 428 kts 20°
2026-04-15 15:35 15.03908 107.90354 17235 ft 423 kts 20°
2026-04-15 15:35 15.06665 107.91385 16638 ft 419 kts 20°
2026-04-15 15:35 15.09398 107.92409 16062 ft 415 kts 20°
2026-04-15 15:35 15.12101 107.93423 15494 ft 411 kts 20°
2026-04-15 15:36 15.14748 107.94418 14947 ft 407 kts 20°
2026-04-15 15:36 15.17394 107.95416 14427 ft 403 kts 20°
2026-04-15 15:36 15.20016 107.96407 13906 ft 399 kts 20°
2026-04-15 15:36 15.22612 107.97386 13356 ft 395 kts 19°
2026-04-15 15:37 15.25184 107.98352 12785 ft 391 kts 19°
2026-04-15 15:37 15.27718 107.99301 12061 ft 384 kts 19°
2026-04-15 15:37 15.30215 108.00234 11197 ft 379 kts 19°
2026-04-15 15:37 15.32679 108.01161 10384 ft 374 kts 19°
2026-04-15 15:38 15.35104 108.02076 9694 ft 366 kts 19°
2026-04-15 15:38 15.37416 108.02950 9554 ft 341 kts 19°
2026-04-15 15:38 15.39572 108.03762 9421 ft 321 kts 19°
2026-04-15 15:38 15.41630 108.04541 9292 ft 309 kts 21°
2026-04-15 15:39 15.43540 108.05477 9165 ft 298 kts 26°
2026-04-15 15:39 15.45356 108.06419 9025 ft 285 kts 25°
2026-04-15 15:39 15.47074 108.07308 8894 ft 267 kts 25°
2026-04-15 15:39 15.48697 108.08147 8740 ft 254 kts 25°
2026-04-15 15:40 15.50266 108.08958 8385 ft 251 kts 25°
2026-04-15 15:40 15.51830 108.09764 7978 ft 250 kts 25°
2026-04-15 15:40 15.53384 108.10566 7588 ft 249 kts 25°
2026-04-15 15:40 15.54928 108.11361 7189 ft 247 kts 26°
2026-04-15 15:41 15.56465 108.12154 6823 ft 245 kts 26°
2026-04-15 15:41 15.57988 108.12941 6443 ft 244 kts 26°
2026-04-15 15:41 15.59502 108.13724 6070 ft 242 kts 26°
2026-04-15 15:41 15.60985 108.14490 6012 ft 242 kts 26°
2026-04-15 15:42 15.62494 108.15272 6014 ft 243 kts 26°
2026-04-15 15:42 15.64010 108.16060 6008 ft 243 kts 26°
2026-04-15 15:42 15.65519 108.16841 5831 ft 242 kts 26°
2026-04-15 15:42 15.67028 108.17620 5593 ft 242 kts 26°
2026-04-15 15:43 15.68534 108.18401 5351 ft 241 kts 27°
2026-04-15 15:43 15.70035 108.19180 5109 ft 241 kts 27°
2026-04-15 15:43 15.71536 108.19958 4878 ft 240 kts 27°
2026-04-15 15:43 15.73005 108.20721 4635 ft 233 kts 27°
2026-04-15 15:44 15.74280 108.21380 4473 ft 224 kts 27°
2026-04-15 15:44 15.75630 108.22080 4411 ft 212 kts 27°
2026-04-15 15:44 15.76940 108.22761 4406 ft 210 kts 27°
2026-04-15 15:44 15.78284 108.23341 4400 ft 210 kts 14°
2026-04-15 15:45 15.79740 108.23419 4335 ft 211 kts 353°
2026-04-15 15:45 15.81193 108.23209 4117 ft 210 kts 352°
2026-04-15 15:45 15.82642 108.22993 3855 ft 210 kts 352°
2026-04-15 15:45 15.84078 108.22784 3601 ft 211 kts 352°
2026-04-15 15:46 15.85531 108.22573 3338 ft 211 kts 352°
2026-04-15 15:46 15.86988 108.22362 3073 ft 211 kts 351°
2026-04-15 15:46 15.88440 108.22151 2807 ft 210 kts 351°
2026-04-15 15:46 15.89887 108.21942 2538 ft 210 kts 351°
2026-04-15 15:47 15.91327 108.21733 2275 ft 206 kts 351°
2026-04-15 15:47 15.92722 108.21531 2015 ft 199 kts 351°
2026-04-15 15:47 15.94051 108.21338 1789 ft 186 kts 352°
2026-04-15 15:47 15.95264 108.21163 1548 ft 168 kts 351°
2026-04-15 15:48 15.96397 108.20998 1336 ft 161 kts 352°
2026-04-15 15:48 15.97502 108.20838 1132 ft 158 kts 352°
2026-04-15 15:48 15.98576 108.20683 925 ft 154 kts 352°
2026-04-15 15:48 15.99630 108.20530 704 ft 152 kts 352°
2026-04-15 15:49 16.00668 108.20381 530 ft 150 kts 353°
2026-04-15 15:49 16.01702 108.20230 331 ft 150 kts 353°
2026-04-15 15:49 16.02732 108.20080 145 ft 149 kts 353°
2026-04-15 15:49 16.03738 108.19938 32 ft 134 kts 352°
2026-04-15 15:50 16.04445 108.19833 35 ft 76 kts 351°
2026-04-15 15:50 16.04901 108.19765 35 ft 62 kts 352°
2026-04-15 15:50 16.05306 108.19706 32 ft 56 kts 352°
2026-04-15 15:50 16.05612 108.19662 32 ft 25 kts 352°
2026-04-15 15:51 16.05718 108.19692 32 ft 13 kts 73°
2026-04-15 15:51 16.05731 108.19781 31 ft 12 kts 82°
2026-04-15 15:51 16.05743 108.19866 32 ft 11 kts 81°
2026-04-15 15:51 16.05754 108.19941 34 ft 9 kts 84°
2026-04-15 15:52 16.05725 108.19988 34 ft 7 kts 160°
2026-04-15 15:52 16.05676 108.19996 34 ft 7 kts 172°
2026-04-15 15:52 16.05634 108.20002 34 ft 6 kts 172°
2026-04-15 15:52 16.05597 108.20007 34 ft 5 kts 173°
2026-04-15 15:53 16.05566 108.20011 34 ft 4 kts 173°
2026-04-15 15:53 16.05541 108.20015 34 ft 3 kts 172°
2026-04-15 15:53 16.05521 108.20017 34 ft 2 kts 172°
2026-04-15 15:53 16.05507 108.20020 34 ft 2 kts 172°
2026-04-15 15:54 16.05489 108.20022 34 ft 6 kts 172°
2026-04-15 15:54 16.05420 108.20033 34 ft 11 kts 172°
2026-04-15 15:54 16.05345 108.20044 34 ft 11 kts 172°
2026-04-15 15:54 16.05287 108.20072 34 ft 9 kts 115°
2026-04-15 15:55 16.05288 108.20127 34 ft 6 kts 82°
2026-04-15 15:55 16.05292 108.20160 34 ft 4 kts 83°
2026-04-15 15:55 16.05294 108.20173 34 ft 1 kts 83°
2026-04-15 15:55 16.05294 108.20176 34 ft 0 kts 83°